Regional Weather Roundup
Issued by NWS Green Bay, WI

Home | Current Version | Previous Version | Text Only | Print | Product List | Glossary On
Versions: 1 2 3 4 5 6 7 8 9 10 11 12 13 14 15 16 17 18 19 20 21 22 23 24 25 26 27 28 29 30 31 32 33 34 35 36 37 38 39 40 41 42 43 44 45 46 47 48 49 50
000
ASUS43 KGRB 022010
RWRGRB

NORTH-CENTRAL AND NORTHEAST WISCONSIN REGIONAL WEATHER ROUNDUP
NATIONAL WEATHER SERVICE GREEN BAY WI
300 PM CDT TUE SEP 02 2014

WIZ005-009-010>012-018-019-022100-
NORTH CENTRAL WISCONSIN

CITY           SKY/WX    TMP DP  RH WIND       PRES   REMARKS
IRONWOOD       NOT AVBL
MANITOWISH WTR PTSUNNY   73  50  44 W8        29.87S
ARBOR VITAE    MOSUNNY   74  47  39 W8        29.88S
EAGLE RIVER    MOSUNNY   73  46  38 W10       29.87S
LAND O LAKES   MOSUNNY   71  45  39 W5        29.87S
RHINELANDER    MOSUNNY   72  50  45 NW8       29.88F
PHILLIPS       MOSUNNY   73  51  45 SW8       29.88R
ANTIGO         SUNNY     73  55  52 NW13G18   29.88F
TOMAHAWK       MOSUNNY   73  50  44 W7        29.89S
MERRILL        MOSUNNY   75  53  46 W7        29.88S
$$

WIZ013-073-022100-
NORTHEAST WISCONSIN

CITY           SKY/WX    TMP DP  RH WIND       PRES   REMARKS
IRON MOUNTAIN  MOSUNNY   76  50  40 W8G16     29.83S
MARINETTE      MOSUNNY   73  61  64 SW7       29.84R
OCONTO         MOSUNNY   75  62  63 SW8       29.86R
$$

WIZ017-030-035>037-045-022100-
CENTRAL WISCONSIN

CITY           SKY/WX    TMP DP  RH WIND       PRES   REMARKS
MEDFORD        MOSUNNY   71  53  54 W9        29.90S
WAUSAU         SUNNY     75  54  47 W14       29.87F
MOSINEE        MOSUNNY   73  57  56 W13       29.89F
MARSHFIELD     PTSUNNY   73  57  57 W10       29.89S
WISC RAPIDS    MOSUNNY   77  57  50 W10       29.91S
STEVENS POINT  MOSUNNY   73  57  55 SW13      29.89S
WAUPACA        MOSUNNY   78  58  50 SW9       29.88F
SHAWANO        PTSUNNY   76  59  54 W9        29.86F
CLINTONVILLE   MOSUNNY   73  55  53 W8G17     29.87S
$$

WIZ038-039-048-051-022100-
FOX VALLEY

CITY           SKY/WX    TMP DP  RH WIND       PRES   REMARKS
NWS GREEN BAY  MOSUNNY   76  60  57 W15       29.87S
APPLETON       PTSUNNY   75  57  53 W9        29.89S
OSHKOSH        MOSUNNY   75  60  59 W6        29.88S
FOND DU LAC    PTSUNNY   76  59  55 W10       29.89S
$$

WIZ022-050-052-022100-
EAST CENTRAL WISCONSIN

CITY           SKY/WX    TMP DP  RH WIND       PRES   REMARKS
STURGEON BAY   SUNNY     73  57  56 SW14      29.87S
MANITOWOC      MOSUNNY   77  59  53 W9G18     29.87F
SHEBOYGAN      MOSUNNY   77  61  57 W5        29.88F
$$

LMZ563-521-522-541>543-022100-
LAKESHORE

STATION/POSITION TIME  TEMP    WIND        PRES    VSBY  WAVE
                       AIR SEA DIR/SP/G                  HT/PER
                 (UTC) (F)     (DEG/KT/KT) (MB)    (MI)  (FT/S)
SHEBOYGAN LKSHOR 2000   74 51  250/  7/  9 1011.9F
KEWAUNEE LKSHORE 2000   63     180/ 10/ 11 1010.7F
NORTHPORT PIER   2000   74     220/  7/ 13 1010.2S
N MID LAKE BUOY  2000   65 65  220/ 10/ 12 1010.3F         1/ 5
S GREEN BAY BUOY 2000   70     VRB  8/ 10  1012.2S
CHAMBERS ISLAND  2000   70     180/  6/ 11 1010.8S
MENOMINEE LKSHOR 2000   72     200/  6/ 16 1011.1S
$$



USA.gov is the U.S. government's official web portal to all federal, state and local government web resources and services.